GW7346 Weather Reports


Display with metric or nautical units.
time (UTC)temp
F
wind
direction
speed
MPH
gust
MPH
rain 1hr
in
rain 24hr
in
rain mn
in
humidity
%
barometer
mb
20260504184533 76 136 5.0 17.0 0.00 0.00 0.00 33 1011.8
20260504184011 76 302 6.0 17.0 0.00 0.00 0.00 32 1012.0
20260504183513 76 224 4.0 12.0 0.00 0.00 0.00 33 1012.1
20260504183025 77 169 2.0 12.0 0.00 0.00 0.00 34 1012.1
20260504182511 77 285 4.0 12.0 0.00 0.00 0.00 32 1012.2
20260504182008 77 209 2.0 9.0 0.00 0.00 0.00 34 1012.2
20260504181516 76 174 3.0 9.0 0.00 0.00 0.00 32 1012.2
20260504181006 76 270 4.0 13.0 0.00 0.00 0.00 33 1012.2
20260504180506 76 230 4.0 13.0 0.00 0.00 0.00 30 1012.4
20260504180018 75 186 2.0 11.0 0.00 0.00 0.00 32 1012.3
20260504175507 75 216 4.0 15.0 0.00 0.00 0.00 33 1012.5
20260504175006 75 254 8.0 15.0 0.00 0.00 0.00 31 1012.6
20260504174522 75 214 4.0 14.0 0.00 0.00 0.00 33 1012.5
20260504174009 75 201 5.0 14.0 0.00 0.00 0.00 33 1012.6
20260504173511 75 221 4.0 9.0 0.00 0.00 0.00 32 1012.8
20260504173022 74 191 3.0 10.0 0.00 0.00 0.00 32 1012.8
20260504172510 74 238 3.0 15.0 0.00 0.00 0.00 32 1012.8
20260504172011 74 194 6.0 15.0 0.00 0.00 0.00 34 1012.9
20260504171528 74 204 5.0 10.0 0.00 0.00 0.00 33 1013.0
20260504171016 74 195 3.0 10.0 0.00 0.00 0.00 34 1013.0
20260504170508 74 252 5.0 12.0 0.00 0.00 0.00 35 1013.1
20260504151004 71 151 4.0 10.0 0.00 0.00 0.00 35 1014.4
20260504150508 70 196 1.0 8.0 0.00 0.00 0.00 37 1014.4
20260504141004 67 221 3.0 7.0 0.00 0.00 0.00 42 1014.6
20260504140507 66 216 3.0 7.0 0.00 0.00 0.00 43 1014.6
20260504130507 61 211 5.0 13.0 0.00 0.00 0.00 49 1015.0
20260504110506 48 227 0.0 4.0 0.00 0.00 0.00 77 1015.4
20260504100506 48 175 1.0 4.0 0.00 0.00 0.00 77 1015.5
20260504081540 45 246 0.0 2.0 0.00 0.00 0.00 82 1015.9
20260504081011 45 246 0.0 1.0 0.00 0.00 0.00 82 1015.8
20260504080510 45 246 0.0 2.0 0.00 0.00 0.00 81 1015.9
20260504050504 40 190 0.0 0.0 0.00 0.00 0.00 84 1016.1
20260504050014 40 190 0.0 0.0 0.00 0.00 0.00 83 1016.1
20260504045502 40 190 0.0 0.0 0.00 0.00 0.00 83 1016.1
20260504045003 40 190 0.0 0.0 0.00 0.00 0.00 83 1016.1
20260504044508 40 190 0.0 0.0 0.00 0.00 0.00 83 1016.2
20260504044003 40 190 0.0 0.0 0.00 0.00 0.00 84 1016.2
20260504043504 40 190 0.0 0.0 0.00 0.00 0.00 84 1016.2
20260504043033 40 190 0.0 0.0 0.00 0.00 0.00 83 1016.2
20260504042505 40 190 0.0 0.0 0.00 0.00 0.00 83 1016.1
20260504042009 40 190 0.0 0.0 0.00 0.00 0.00 82 1016.2
20260504041506 41 190 0.0 0.0 0.00 0.00 0.00 82 1016.1
20260504041003 41 190 0.0 0.0 0.00 0.00 0.00 82 1016.1
20260504040508 41 190 0.0 0.0 0.00 0.00 0.00 82 1016.0
20260504040022 41 190 0.0 0.0 0.00 0.00 0.00 81 1016.1
20260504035505 41 190 0.0 0.0 0.00 0.00 0.00 81 1016.1
20260504035004 41 190 0.0 0.0 0.00 0.00 0.00 81 1016.1
20260504034506 41 190 0.0 0.0 0.00 0.00 0.00 81 1015.9
20260504034004 42 190 0.0 0.0 0.00 0.00 0.00 80 1015.9
20260504033501 42 190 0.0 2.0 0.00 0.00 0.00 79 1015.8
20260504033012 42 190 0.0 2.0 0.00 0.00 0.00 79 1015.8
20260504032504 42 197 0.0 1.0 0.00 0.00 0.00 78 1015.7
20260504032010 42 197 0.0 0.0 0.00 0.00 0.00 77 1015.6
20260504031516 42 197 0.0 0.0 0.00 0.00 0.00 76 1015.5
20260504031009 43 197 0.0 0.0 0.00 0.00 0.00 76 1015.4
20260504030505 43 197 0.0 0.0 0.00 0.00 0.00 75 1015.3
20260504030026 43 197 0.0 0.0 0.00 0.00 0.00 74 1015.5
20260504025503 43 197 0.0 0.0 0.00 0.00 0.00 73 1015.5
20260504025002 44 197 0.0 0.0 0.00 0.00 0.00 73 1015.4
20260504024514 44 197 0.0 0.0 0.00 0.00 0.00 73 1015.5
20260504024007 44 197 0.0 0.0 0.00 0.00 0.00 72 1015.4
20260504023503 44 197 0.0 0.0 0.00 0.00 0.00 71 1015.5
20260504023010 45 197 0.0 0.0 0.00 0.00 0.00 70 1015.5
20260504022502 45 197 0.0 0.0 0.00 0.00 0.00 68 1015.5
20260504022007 45 197 0.0 0.0 0.00 0.00 0.00 68 1015.6
20260504021508 45 197 0.0 0.0 0.00 0.00 0.00 68 1015.6
20260504021003 46 197 0.0 0.0 0.00 0.00 0.00 68 1015.5
20260504020502 46 197 0.0 0.0 0.00 0.00 0.00 67 1015.4
20260504020019 46 197 0.0 0.0 0.00 0.00 0.00 66 1015.4
20260504015509 47 197 0.0 0.0 0.00 0.00 0.00 64 1015.3
20260504015011 47 197 0.0 0.0 0.00 0.00 0.00 63 1015.5
20260504014533 47 197 0.0 0.0 0.00 0.00 0.00 62 1015.4
20260504014009 48 197 0.0 0.0 0.00 0.00 0.00 60 1015.5
20260504013507 48 197 0.0 0.0 0.00 0.00 0.00 59 1015.3
20260504013027 49 197 0.0 0.0 0.00 0.00 0.00 59 1015.3
20260504012504 49 197 0.0 0.0 0.00 0.00 0.00 58 1015.3
20260504012003 49 197 0.0 0.0 0.00 0.00 0.00 56 1015.2
20260504011510 50 197 0.0 0.0 0.00 0.00 0.00 55 1015.2
20260504011002 50 197 0.0 0.0 0.00 0.00 0.00 54 1015.2
20260504010503 51 197 0.0 0.0 0.00 0.00 0.00 53 1015.1
20260504010014 51 197 0.0 0.0 0.00 0.00 0.00 52 1015.1
20260504005510 52 197 0.0 0.0 0.00 0.00 0.00 51 1015.0
20260504005006 52 197 0.0 0.0 0.00 0.00 0.00 49 1015.0
20260504004514 53 197 0.0 0.0 0.00 0.00 0.00 48 1015.0
20260504004008 53 197 0.0 0.0 0.00 0.00 0.00 48 1015.0
20260504003509 54 197 0.0 0.0 0.00 0.00 0.00 47 1014.9
20260504003024 54 197 0.0 1.0 0.00 0.00 0.00 46 1014.9
20260504002512 55 197 0.0 1.0 0.00 0.00 0.00 46 1014.8
20260504002002 55 197 0.0 0.0 0.00 0.00 0.00 45 1014.7
20260504001505 56 197 0.0 0.0 0.00 0.00 0.00 44 1014.7
20260504001004 56 197 0.0 0.0 0.00 0.00 0.00 43 1014.7
20260504000504 57 197 0.0 1.0 0.00 0.00 0.00 42 1014.6
20260504000007 57 197 0.0 2.0 0.00 0.00 0.00 41 1014.6
20260503235504 58 197 0.0 2.0 0.00 0.00 0.00 40 1014.6
20260503235004 58 218 0.0 2.0 0.00 0.00 0.00 38 1014.5
20260503234504 59 218 0.0 2.0 0.00 0.00 0.00 38 1014.5
20260503234004 59 201 0.0 5.0 0.00 0.00 0.00 37 1014.4
20260503233504 60 201 0.0 5.0 0.00 0.00 0.00 36 1014.3
20260503233018 60 236 0.0 4.0 0.00 0.00 0.00 34 1014.3
20260503232502 60 279 0.0 4.0 0.00 0.00 0.00 33 1014.2
20260503232006 61 287 0.0 4.0 0.00 0.00 0.00 33 1014.2
20260503231504 61 21 1.0 10.0 0.00 0.00 0.00 33 1014.2
20260503231003 61 288 4.0 10.0 0.00 0.00 0.00 32 1014.2
20260503230507 61 258 2.0 8.0 0.00 0.00 0.00 31 1014.1
20260503230008 62 181 2.0 10.0 0.00 0.00 0.00 31 1014.1
20260503225503 62 337 2.0 10.0 0.00 0.00 0.00 30 1014.2
20260503225003 62 150 3.0 10.0 0.00 0.00 0.00 30 1014.2
20260503224509 62 296 2.0 13.0 0.00 0.00 0.00 31 1014.3
20260503224003 62 336 2.0 13.0 0.00 0.00 0.00 30 1014.3
20260503223502 62 327 5.0 12.0 0.00 0.00 0.00 30 1014.3
20260503223007 62 344 3.0 10.0 0.00 0.00 0.00 31 1014.2
20260503222504 63 267 3.0 13.0 0.00 0.00 0.00 29 1014.2
20260503222006 63 234 6.0 13.0 0.00 0.00 0.00 29 1014.1
20260503221511 63 317 4.0 10.0 0.00 0.00 0.00 30 1014.1
20260503221009 64 274 3.0 9.0 0.00 0.00 0.00 30 1014.1
20260503220504 64 309 3.0 15.0 0.00 0.00 0.00 29 1014.3
20260503220006 65 342 2.0 15.0 0.00 0.00 0.00 28 1014.3
20260503215503 65 335 6.0 12.0 0.00 0.00 0.00 28 1014.4
20260503215003 65 331 4.0 13.0 0.00 0.00 0.00 28 1014.3
20260503214512 65 212 5.0 13.0 0.00 0.00 0.00 29 1014.3
20260503214003 64 315 4.0 13.0 0.00 0.00 0.00 29 1014.2
20260503213503 64 336 6.0 13.0 0.00 0.00 0.00 29 1014.3
20260503213011 64 275 6.0 16.0 0.00 0.00 0.00 29 1014.2
20260503212504 64 331 3.0 16.0 0.00 0.00 0.00 29 1014.0
20260503212005 64 267 6.0 12.0 0.00 0.00 0.00 29 1014.2
20260503211514 64 210 4.0 13.0 0.00 0.00 0.00 29 1014.2
20260503211004 64 256 3.0 13.0 0.00 0.00 0.00 30 1014.3
20260503210506 64 283 5.0 13.0 0.00 0.00 0.00 30 1014.2
20260503210008 63 347 4.0 13.0 0.00 0.00 0.00 31 1014.3
20260503205503 63 187 4.0 13.0 0.00 0.00 0.00 31 1014.3
20260503205003 63 288 3.0 13.0 0.00 0.00 0.00 31 1014.2
20260503204508 63 263 6.0 13.0 0.00 0.00 0.00 33 1014.3
20260503204004 63 274 5.0 19.0 0.00 0.00 0.00 31 1014.3
20260503203507 63 315 9.0 19.0 0.00 0.00 0.00 33 1014.4
20260503203035 62 262 3.0 12.0 0.00 0.00 0.00 34 1014.4
20260503202507 62 311 5.0 12.0 0.00 0.00 0.00 33 1014.6
20260503202004 62 305 5.0 14.0 0.00 0.00 0.00 32 1014.6
20260503201511 63 43 4.0 15.0 0.00 0.00 0.00 32 1014.6
20260503201009 63 333 7.0 17.0 0.00 0.00 0.00 33 1014.8
20260503200504 63 287 8.0 20.0 0.00 0.00 0.00 33 1014.9
20260503200017 62 331 9.0 20.0 0.00 0.00 0.00 32 1014.8
20260503195505 63 194 7.0 17.0 0.00 0.00 0.00 34 1015.0
20260503195005 63 319 9.0 17.0 0.00 0.00 0.00 31 1015.1
20260503194531 62 269 5.0 14.0 0.00 0.00 0.00 33 1015.0
20260503194003 62 288 4.0 19.0 0.00 0.00 0.00 33 1015.2
20260503193503 62 306 8.0 19.0 0.00 0.00 0.00 32 1015.3
20260503193014 62 196 4.0 16.0 0.00 0.00 0.00 35 1015.3
20260503192504 62 265 5.0 13.0 0.00 0.00 0.00 34 1015.4
20260503192007 61 253 4.0 16.0 0.00 0.00 0.00 34 1015.4
20260503191515 61 342 3.0 16.0 0.00 0.00 0.00 34 1015.5
20260503191004 61 285 2.0 14.0 0.00 0.00 0.00 34 1015.4
20260503190503 61 341 6.0 14.0 0.00 0.00 0.00 35 1015.6
20260503190009 61 303 5.0 20.0 0.00 0.00 0.00 33 1015.7
20260503185506 62 304 7.0 20.0 0.00 0.00 0.00 33 1015.7
20260503185005 62 325 6.0 18.0 0.00 0.00 0.00 33 1015.7